www.pogodaiklimat.ru

Погода и климат >> Архив погоды >> Кувейт >> Sulaibiya


ПОГОДА в Sulaibiya

  • Прогноз погоды в Sulaibiya
  • Монитор погоды в Sulaibiya
  • Климат города

АРХИВ ПОГОДЫ в Sulaibiya

Время (UTC), дата Ветер
(напр.,м/с)
 
Видим.   Явления Облачность Т
(С)
Тd
(С)
f
(%)
Тe
(С)
Тes
(С)
Комфортность P
(гПа)
Po
(гПа)
Тmin
(С)
Tmax
(С)
R
(мм)
R24
(мм)
S
(см)
09 11.08 ЮВ 3 н/о н/о +46.5 +11.8 13 +46 +46 опасность
перегрева
997.9 998.0
12 11.08 ЮВ 4 н/о н/о +48.3 +9.1 10 +46 +46 опасность
перегрева
996.8 997.0
15 11.08 В 3 н/о н/о +41.6 +13.9 20 +42 +42 опасность
перегрева
997.4 997.0
18 11.08 ЮВ 4 н/о н/о +37.1 +16.4 30 +40 +40 очень
душно
998.7 999.0
21 11.08 Ю 3 н/о н/о +36.3 +9.4 19 +35 +35 очень
жарко
998.7 999.0 +30.1 +49.7
00 12.08 ЮВ 3 н/о н/о +35.6 +8.4 19 +34 +34 очень
жарко
998.4 998.0
03 12.08 ЮВ 2 н/о н/о +32.4 +10.8 27 +32 +32 жарко 999.5 1000.0
06 12.08 Ю 5 н/о н/о +40.7 +8.5 14 +39 +39 очень
жарко
1000.3 1000.0
09 12.08 В 3 н/о н/о +47.9 +5.5 8 +45 +45 опасность
перегрева
998.4 998.0
12 12.08 С 3 н/о н/о +49.8 +3.9 7 +47 +47 опасность
перегрева
996.8 997.0
15 12.08 ЮВ 4 н/о н/о +42.8 +10.7 15 +42 +42 опасность
перегрева
996.9 997.0
18 12.08 Ю 4 н/о н/о +39.7 +9.7 17 +38 +38 очень
жарко
998.2 998.0
21 12.08 ЮВ 1 н/о н/о +37.0 +9.0 18 +35 +35 очень
жарко
997.8 998.0 +32.0 +52.0
00 13.08 З 1 н/о н/о +36.2 +4.1 14 +33 +33 жарко 997.2 997.0
03 13.08 ЮЗ 3 н/о н/о +35.8 +2.7 13 +33 +33 жарко 998.1 998.0
06 13.08 В 2 н/о н/о +41.8 +2.3 9 +38 +38 очень
жарко
999.0 999.0
09 13.08 СВ 3 н/о н/о +48.4 -1.3 5 +44 +44 опасность
перегрева
998.1 998.0
12 13.08 СВ 4 н/о н/о +49.3 -2.0 4 +45 +45 опасность
перегрева
997.0 997.0
15 13.08 В 2 н/о н/о +43.3 +4.1 9 +40 +40 очень
жарко
997.3 997.0
18 13.08 ЮЗ 2 н/о н/о +38.5 +8.4 16 +36 +36 очень
жарко
998.6 999.0
21 13.08 ЮЗ 3 н/о н/о +35.9 +3.5 13 +33 +33 жарко 998.7 999.0 +33.8 +50.8
00 14.08 ЮЗ 6 н/о н/о +35.6 +5.9 16 +33 +33 жарко 998.4 998.0
03 14.08 ЮЗ 3 н/о н/о +35.8 +6.3 16 +33 +33 жарко 1000.0 1000.0
06 14.08 З 3 н/о н/о +46.3 +2.9 7 +43 +43 опасность
перегрева
1000.1 1000.0
09 14.08 С 5 н/о н/о +49.4 +0.1 5 +45 +45 опасность
перегрева
999.1 999.0
12 14.08 СВ 5 н/о н/о +50.0 -1.7 4 +46 +46 опасность
перегрева
997.3 997.0
15 14.08 СВ 2 н/о н/о +45.9 +2.8 7 +42 +42 опасность
перегрева
997.6 998.0
18 14.08 Ю 2 н/о н/о +40.0 +5.6 12 +37 +37 очень
жарко
999.8 1000.0
21 14.08 С 5 н/о н/о +40.4 +1.0 9 +37 +37 очень
жарко
999.8 1000.0 +34.9 +51.5
00 15.08 С 4 н/о н/о +37.1 +3.9 13 +34 +34 очень
жарко
999.3 999.0
03 15.08 СЗ 4 н/о н/о +37.0 +5.9 15 +34 +34 очень
жарко
1000.7 1001.0
06 15.08 С 5 н/о н/о +43.0 +5.8 11 +40 +40 очень
жарко
1001.5 1002.0
09 15.08 СВ 5 н/о н/о +47.9 +2.6 7 +45 +45 опасность
перегрева
999.9 1000.0
12 15.08 СВ 5 н/о н/о +48.4 +2.8 7 +45 +45 опасность
перегрева
998.3 998.0
15 15.08 СВ 2 н/о н/о +45.2 +4.3 9 +42 +42 опасность
перегрева
998.5 999.0
18 15.08 Ю 2 н/о н/о +39.2 +9.7 17 +38 +38 очень
жарко
1000.6 1001.0
21 15.08 ЮЗ 4 н/о н/о +36.8 +9.0 18 +35 +35 очень
жарко
1000.1 1000.0 +34.8 +49.5
00 16.08 ЮВ 1 н/о н/о +33.4 +10.8 25 +33 +33 жарко 1000.5 1001.0
03 16.08 Ю 2 н/о н/о +32.0 +19.0 46 +37 +37 очень
душно
1001.6 1002.0
06 16.08 В 3 н/о н/о +40.2 +15.3 23 +41 +41 опасность
перегрева
1002.1 1002.0
09 16.08 СВ 3 н/о н/о +44.5 +11.6 15 +44 +44 опасность
перегрева
1001.8 1002.0
12 16.08 ЮЗ 3 н/о н/о +46.3 +7.2 10 +44 +44 опасность
перегрева
1000.6 1001.0
15 16.08 ЮЗ 2 н/о н/о +44.9 +5.0 9 +42 +42 опасность
перегрева
999.8 1000.0
18 16.08 Ю 3 н/о н/о +38.5 +12.7 22 +38 +38 очень
жарко
1001.2 1001.0
21 16.08 ЮВ 2 н/о н/о +35.2 +20.9 43 +42 +42 опасность
перегрева
1000.8 1001.0 +31.1 +47.3
00 17.08 ЮВ 2 н/о н/о +32.7 +26.8 71 +50 +50 опасность
перегрева
1000.4 1000.0
03 17.08 Ю 3 н/о н/о +32.8 +19.0 44 +50 +50 опасность
перегрева
1001.2 1001.0
06 17.08 ЮЗ 6 н/о н/о +43.7 +8.0 12 +42 +42 опасность
перегрева
1002.2 1002.0
09 17.08 СЗ 4 н/о н/о +47.6 +4.6 8 +45 +45 опасность
перегрева
1001.1 1001.0
12 17.08 СВ 4 н/о н/о +45.9 +12.6 14 +45 +45 опасность
перегрева
999.5 1000.0
15 17.08 В 2 н/о н/о +41.5 +19.8 29 +46 +46 опасность
перегрева
999.3 999.0
18 17.08 ЮВ 2 н/о н/о +37.9 +21.8 40 +46 +46 опасность
перегрева
1000.8 1001.0
21 17.08 ЮВ 3 н/о н/о +34.9 +21.6 46 +43 +43 опасность
перегрева
1000.7 1001.0 +31.9 +48.3
00 18.08 ЮЗ 4 н/о н/о +34.0 +19.6 43 +40 +40 очень
душно
1000.4 1000.0
03 18.08 З 5 н/о н/о +34.1 +15.6 33 +36 +36 душно 1001.4 1001.0
06 18.08 З 6 н/о н/о +42.7 +11.6 16 +42 +42 опасность
перегрева
1001.8 1002.0

 

Местоположение метеостанции Sulaibiya (Кувейт): широта 29.27 долгота 47.72 высота над уровнем моря 55 м.

В архиве по умолчанию представлена погода в Sulaibiya за последнюю неделю. Архивные данные за месяц целиком и за предыдущие месяцы, начиная с января 2011 года, Вы можете получить, выбрав интересующий диапазон дат из раскрывающегося списка и нажав кнопку "Ввод!".

Внимание! Время в таблицах - всемирное. Для получения местного времени необходимо прибавить поправку, которая в Sulaibiya равна 3 ч.

Смотрите также архив погоды в соседних городах и на ближайших метеорологических станциях:

Погода в Jahra (Кувейт) (7 км)
Погода в Experimental Farm (Кувейт) (21 км)
Погода в Kuwait (Кувейт) (25 км)
Погода в Minagish (Кувейт) (29 км)
Погода в Shuwaikh (Кувейт) (33 км)
Погода в Al-Shuaiba (Кувейт) (38 км)
Погода в Sabriyah (Кувейт) (55 км)
Погода в Failaka Island (Кувейт) (59 км)
Погода в Mitribah (Кувейт) (70 км)
Погода в Abraque Al Habari (Кувейт) (70 км)

Пояснения к столбцам:

Ветер - указаны скорость ветра в м/с - средняя за 10 мин, порывы в срок и между сроками (в фигурных скобках) и направление, откуда дует ветер: С - северный, СВ - северо-восточный, В - восточный, ЮВ - юго-восточный, Ю - южный, ЮЗ - юго-западный, З - западный, СЗ - северо-западный.
Видимость - горизонтальная дальность видимости в метрах или километрах. При видимости от 1 до 10 км при отсутствии осадков обычно наблюдается дымка, при ухудшении видимости до 1 км и менее - туман. В сухую погоду видимость может ухудшаться дымом, пылью или мглою.
Явления - указаны атмосферные явления, наблюдавшиеся в срок или в последний час перед сроком; фигурными скобками обозначены явления, наблюдавшиеся между сроками (за 1-3 часа до срока); квадратными скобками обозначены град или гололедные отложения с указанием их диаметра в мм.
Облачность - указаны через наклонную черту общая и нижняя облачность в баллах и высота нижней границы облаков в метрах; квадратными скобками обозначены формы облаков: Ci - перистые, Cs - перисто-слоистые, Cc - перисто-кучевые, Ac - высококучевые, As - высокослоистые, Sc - слоисто-кучевые, Ns - слоисто-дождевые, Cu - кучевые, Cb - кучево-дождевые. Подробнее классификацию облаков см. в Атласе облаков (PDF).
T - Температура воздуха - температура, измеренная на высоте 2 м над землей.
Td - Температура точки росы - температура, при понижении до которой содержащийся в воздухе водяной пар достигнет насыщения.
f - Относительная влажность воздуха - влажноcть воздуха, измеренная на высоте 2 м над землей.
Te - Эффективная температура - температура, которую ощущает одетый по сезону человек в тени. Характеристика душности погоды. При расчете учитывается влияние влажности воздуха и скорости ветра на теплоощущения человека.
Tes - Эффективная температура на солнце - температура, которую ощущает человек, с поправкой на солнечный нагрев. Характеристика знойности погоды. Зависит от высоты солнца над горизонтом, облачности и скорости ветра. Ночью, в пасмурную погоду, а также при ветре 12 м/с и более поправка равна нулю.
P - Атмосферное давление - приведенное к уровню моря атмосферное давление.
Po - Атмосферное давление - измеренное на уровне метеостанции атмосферное давление.
Tmin - Минимальная температура - минимум температуры воздуха на высоте 2 м над землей.
Tmax - Максимальная температура - максимум температуры воздуха на высоте 2 м над землей.
R - Количество осадков - Количество выпавших осадков за период времени, мм. При наведении курсора мыши на число - период времени, за который выпало указанное количество осадков.
R24 - Количество осадков - Количество выпавших осадков за 24 часа, мм.
S - Снежный покров - Высота снежного покрова, см. При наведении курсора мыши на число - состояние снежного покрова и степень покрытия местности в баллах.